Flag for Canada Weather past 2 weeks in Charlottetown, Prince Edward Island, Canada

Now
66 °F

Broken clouds.


Feels Like: 66 °F
Forecast: 60 / 73 °F
Wind: 12 mph from South

Location: Charlottetown

Current Time: Jul 28, 2015 at 10:13:52 PM

Latest Report: Jul 28, 2015 at 9:00 PM


Visibility: 15 mi

Pressure: 29.90 "Hg

Humidity: 88%

Dew point: 63 °F

Location of CharlottetownLocation

Historic Weather in Charlottetown — Graph

°F

Charlottetown temperature yesterday

Maximum temperature yesterday: 66 °F (at 2:00 PM)
Minimum temperature yesterday: 59 °F (at 1:00 AM)
Average temperature yesterday: 63 °F

Past Weeks' High & Low Weather Summary

 TemperatureHumidityPressure
High81 °F (Jul 14, 3:00 PM)100% (Jul 15, 4:00 AM)30.13 "Hg (Jul 15, 4:00 AM)
Low48 °F (Jul 17, 5:00 AM)41% (Jul 18, 1:00 PM)29.54 "Hg (Jul 22, 9:00 PM)
Average62 °F84%29.88 "Hg
* Reported Jul 13 8:00 PM — Jul 28 8:00 PM, Charlottetown, Weather by CustomWeather, © 2015

Note: Actual official high and low records may vary slightly from our data, if they occured in-between our weather recording intervals... More about our weather records

Advertising

Charlottetown weather history for previous 24 hours

 ConditionsComfort  
Time TempWeatherWind HumidityBarometerVisibility
8:00 PM
Tue, Jul 28
68 °FPartly sunny.12 mph88%29.90 "Hg15 mi
7:00 PM68 °FMore clouds than sun.16 mph88%29.90 "Hg15 mi
6:00 PM70 °FOvercast.18 mph83%29.90 "Hg15 mi
5:00 PM70 °FMore clouds than sun.14 mph88%29.90 "Hg15 mi
4:00 PM70 °FScattered showers. Mostly cloudy.20 mph88%29.91 "Hg15 mi
3:00 PM70 °FMore clouds than sun.20 mph83%29.92 "Hg15 mi
2:00 PM70 °FMostly cloudy.16 mph88%29.93 "Hg15 mi
1:00 PM72 °FBroken clouds.16 mph83%29.94 "Hg15 mi
12:00 PM68 °FMostly cloudy.10 mph88%29.95 "Hg15 mi
11:00 AM66 °FDrizzle. More clouds than sun.9 mph94%29.96 "Hg10 mi
10:00 AM66 °FLow clouds.12 mph94%29.97 "Hg15 mi
9:00 AM64 °FDrizzle. Fog.12 mph100%29.98 "Hg3 mi
8:51 AM64 °FDrizzle. Fog.12 mph100%29.98 "Hg3 mi
8:00 AM64 °FDrizzle. Fog.7 mph94%29.98 "Hg2 mi
7:00 AM64 °FDrizzle. Fog.8 mph94%29.98 "Hg6 mi
6:00 AM64 °FMostly cloudy.7 mph94%29.98 "Hg10 mi
5:00 AM64 °FLow clouds.7 mph94%29.98 "Hg12 mi
4:00 AM64 °FMostly cloudy.6 mph94%29.99 "Hg15 mi
3:00 AM64 °FMostly cloudy.8 mph94%30.01 "Hg15 mi
2:00 AM63 °FPartly cloudy.8 mph100%30.01 "Hg15 mi
1:00 AM63 °FPartly cloudy.7 mph100%30.02 "Hg15 mi
12:00 AM64 °FPassing clouds.9 mph94%30.03 "Hg15 mi
11:00 PM
Mon, Jul 27
66 °FPassing clouds.9 mph88%30.04 "Hg12 mi
10:00 PM66 °FPartly cloudy.10 mph94%30.04 "Hg12 mi
Weather by CustomWeather, © 2015

See weather overviewHow to use our weather pages